{"data":{"norad_id":45044,"epoch":"2026-05-25T00:18:33.588000Z","epoch_age_seconds":77404,"freshness":"FRESH","line1":"1 45044U 20006A   26145.01288875  .00067521  00000+0  10431-2 0  9993","line2":"2 45044  53.1520 249.4559 0001996 344.9924  15.1027 15.53508327348755","mean_motion":15.53508327,"eccentricity":0.0001996,"inclination_deg":53.152,"raan_deg":249.4559,"arg_perigee_deg":344.9924,"mean_anomaly_deg":15.1027,"bstar":0.0010431,"rev_number":34875,"period_min":92.693420110647,"perigee_km":405.1379959199,"apogee_km":407.84641989969,"semimajor_km":6784.6292079098,"source":"CELESTRAK","updated_at":"2026-05-25T13:38:16.376788Z"}}